Location: Unspecified
(49.9563°N, 0.0000°E)
Time: 22:38:36
(UTC+00:00)

Vanguard 3 - Visible Passes

Search period start: 04 April 2026 00:00
Search period end: 14 April 2026 00:00
Orbit: 508 x 3205 km, 33.3° (Epoch: 28 March)

Date Brightness Start Highest point End Pass type
(mag) Time Alt. Az. Time Alt. Az. Time Alt. Az.
4 Apr 9.3 04:27:19 10° SW 04:32:29 24° SSE 04:40:05 10° ESE visible
5 Apr 9.2 03:09:57 15° S 03:11:21 16° SSE 03:15:49 10° ESE visible
6 Apr 9.0 03:56:41 13° SSW 04:00:03 20° SSE 04:06:00 10° SE visible
7 Apr 9.3 02:39:32 13° SSE 02:39:32 13° SSE 02:41:55 10° SE visible
7 Apr 9.2 04:44:21 10° SW 04:48:59 21° S 04:55:33 10° SE visible
8 Apr 8.9 03:26:18 15° S 03:27:44 17° SSE 03:32:06 10° SE visible
9 Apr 9.0 04:13:04 10° SW 04:16:37 17° S 04:21:27 10° SE visible
10 Apr 9.1 02:55:58 13° SSE 02:55:58 13° SSE 02:58:20 10° SE visible
11 Apr 8.9 03:42:49 12° SSW 03:44:19 14° S 03:47:28 10° SSE visible
12 Apr 9.2 04:31:33 10° SSW 04:33:17 11° S 04:35:13 10° S visible
13 Apr 9.1 03:12:41 10° S 03:12:41 10° S 03:13:13 10° SSE visible
